Weather History for KSNY - June, 2013

Change the Weather History Date:

Friday, June 28, 2013

  Actual Average Record
Temperature  
Mean Temperature 76 °F 72 °F  
Max Temperature 93 °F 88 °F 102 °F (1990)
Min Temperature 58 °F 57 °F 41 °F (1985)
Degree Days  
Heating Degree Days 0 0  
Month to date heating degree days 37 58  
Since 1 June heating degree days 37 58  
Since 1 July heating degree days 6677 6220  
Cooling Degree Days 11 8  
Month to date cooling degree days 156 121  
Year to date cooling degree days 189 143  
Since 1 June cooling degree days 156 121  
Growing Degree Days 26 (Base 50)    
Moisture  
Dew Point 51 °F    
Average Humidity 51    
Maximum Humidity 78    
Minimum Humidity 23    
Precipitation  
Precipitation 0.00 in 0.09 in 0.44 in (1971)
Month to date precipitation 0.30 3.00  
Year to date precipitation 6.08 9.76  
Sea Level Pressure  
Sea Level Pressure 30.08 in    
Wind  
Wind Speed 10 mph (NE)    
Max Wind Speed 18 mph    
Max Gust Speed 24 mph    
Visibility 10 miles    
Events      
T = Trace of Precipitation, MM = Missing Value Source: NWS Daily Summary

Daily Weather History Graph

Daily Weather History Graph

Search for Another Location

Airport or City:

Trip Planner

Search our weather history database for the weather conditions in past years. The results will help you decide how hot, cold, wet, or windy it might be!

Date:

Astronomy

Jun. 28, 2013 Rise Set
Actual Time 5:21 AM MDT 8:28 PM MDT
Civil Twilight 4:48 AM MDT 9:02 PM MDT
Nautical Twilight 4:05 AM MDT 9:45 PM MDT
Astronomical Twilight 3:14 AM MDT 10:35 PM MDT
Moon 11:54 PM MDT 11:35 AM MDT
Length of Visible Light 16h 13m
Length of Day
15h 06m
Waning Gibbous, 65% of the Moon is Illuminated
Jun 28
Waning Gibbous
Jun 29
Last Quarter
Jul 8
New
Jul 15
First Quarter
Jul 22
Full

Hourly Weather History & Observations

Time (MDT) Temp. Dew Point Humidity Pressure Visibility Wind Dir Wind Speed Gust Speed Precip Events Conditions
12:53 AM 66.0 °F 54.0 °F 65% 30.10 in 10.0 mi SSW 6.9 mph - N/A   Clear
1:53 AM 63.0 °F 54.0 °F 72% 30.12 in 10.0 mi West 3.5 mph - N/A   Clear
2:53 AM 64.0 °F 55.0 °F 73% 30.11 in 10.0 mi North 8.1 mph - N/A   Clear
3:53 AM 62.1 °F 54.0 °F 75% 30.11 in 10.0 mi North 6.9 mph - N/A   Clear
4:53 AM 61.0 °F 54.0 °F 78% 30.12 in 10.0 mi North 6.9 mph - N/A   Clear
5:53 AM 64.9 °F 54.0 °F 68% 30.12 in 10.0 mi NNE 9.2 mph - N/A   Clear
6:53 AM 70.0 °F 55.0 °F 59% 30.11 in 10.0 mi NE 10.4 mph - N/A   Clear
7:53 AM 77.0 °F 55.0 °F 47% 30.10 in 10.0 mi ENE 15.0 mph - N/A   Clear
8:53 AM 80.1 °F 52.0 °F 38% 30.12 in 10.0 mi NE 13.8 mph - N/A   Clear
9:53 AM 82.9 °F 52.0 °F 34% 30.11 in 10.0 mi ENE 16.1 mph 24.2 mph N/A   Clear
10:53 AM 86.0 °F 52.0 °F 31% 30.11 in 10.0 mi NE 15.0 mph 20.7 mph N/A   Clear
11:53 AM 88.0 °F 50.0 °F 27% 30.10 in 10.0 mi ENE 12.7 mph 20.7 mph N/A   Clear
12:53 PM 88.0 °F 48.0 °F 25% 30.09 in 10.0 mi ENE 5.8 mph - N/A   Clear
1:53 PM 91.0 °F 48.0 °F 23% 30.07 in 10.0 mi NE 10.4 mph - N/A   Clear
2:53 PM 91.9 °F 50.0 °F 24% 30.05 in 10.0 mi ENE 10.4 mph 17.3 mph N/A   Clear
3:53 PM 91.9 °F 50.0 °F 24% 30.04 in 10.0 mi ENE 15.0 mph 19.6 mph N/A   Clear
4:53 PM 91.0 °F 50.0 °F 24% 30.03 in 10.0 mi NE 12.7 mph 24.2 mph N/A   Clear
5:53 PM 89.1 °F 48.0 °F 24% 30.02 in 10.0 mi NE 16.1 mph - N/A   Clear
6:53 PM 87.1 °F 48.0 °F 26% 30.01 in 10.0 mi ENE 17.3 mph - N/A   Clear
7:53 PM 82.0 °F 48.0 °F 30% 30.01 in 10.0 mi ENE 12.7 mph - N/A   Clear
8:53 PM 77.0 °F 48.0 °F 36% 30.02 in 10.0 mi East 10.4 mph - N/A   Clear
9:53 PM 70.0 °F 48.9 °F 47% 30.07 in 10.0 mi ESE 4.6 mph - N/A   Clear
10:53 PM 68.0 °F 48.9 °F 50% 30.08 in 10.0 mi ESE 3.5 mph - N/A   Clear
11:53 PM 66.0 °F 48.9 °F 54% 30.09 in 10.0 mi ENE 5.8 mph - N/A   Clear